Regional Weather Roundup
Issued by NWS

Home | Current Version | Previous Version | Text Only | Print | Product List | Glossary On
Versions: 1 2 3 4 5 6 7 8 9 10 11 12 13 14 15 16 17 18 19 20 21 22 23 24 25 26 27 28 29 30 31 32 33 34 35 36 37 38 39 40 41 42 43 44 45 46 47 48 49 50
000
ASUS43 KMPX 170010
RWRMN
WEATHER ROUNDUP FOR MINNESOTA
NATIONAL WEATHER SERVICE TWIN CITIES/CHANHASSEN MN
700 PM CDT TUE SEP 16 2014


NOTE: "FAIR" INDICATES FEW OR NO CLOUDS BELOW 12,000 FEET WITH NO
SIGNIFICANT WEATHER AND/OR OBSTRUCTIONS TO VISIBILITY. N/A MEANS
CURRENT SKY AND/OR WEATHER CONDITIONS ARE NOT AVAILABLE.

MNZ060>063-068>070-170100-
   Twin Cities Metro

CITY           SKY/WX    TMP DP  RH WIND       PRES   REMARKS
TWIN CITIES    PTCLDY    64  42  44 S6        30.02F
6HR MIN TEMP:  63; 6HR MAX TEMP:  68;

ST PAUL        CLEAR     62  45  53 S6        30.03F
CRYSTAL        CLEAR     64  43  46 S5        30.02F
BLAINE         CLEAR     64  45  48 SW3       30.02F
LAKEVILLE      CLEAR     59  46  63 CALM      30.03F
EDEN PRAIRIE   CLOUDY    64  46  52 S3        30.01F
6HR MIN TEMP:  63; 6HR MAX TEMP:  68;

SOUTH ST PAUL  CLEAR     64  43  46 CALM      30.03S
LAKE ELMO      FAIR      63  45  51 S5        30.04F
$$
MNZ001>005-007-008-013>017-022>024-027-028-170100-
   Northwest Minnesota

CITY           SKY/WX    TMP DP  RH WIND       PRES   REMARKS
BEMIDJI        CLEAR     64  43  45 SW5       29.97S
HALLOCK        CLEAR     70  46  43 E6        29.90S
ROSEAU         CLOUDY    61  52  72 E5        29.93F
WARROAD        MOCLDY    57  52  82 E3        29.94F
THIEF RVR FALL CLEAR     66  43  42 S6        29.94S
CROOKSTON      CLEAR     66  45  45 S6        29.94F
FOSSTON        CLEAR     66  43  42 SW5       29.97S
DETROIT LAKES  CLEAR     63  43  48 SE6       29.99F
MOORHEAD       CLEAR     68  39  34 SE3       29.95F
PARK RAPIDS    CLEAR     62  38  40 SW5       29.98F
MAHNOMEN       FAIR      64  40  42 S5        29.96F
$$
MNZ006-009>011-018-025>026-170100-
   North Central Minnesota

CITY           SKY/WX    TMP DP  RH WIND       PRES   REMARKS
BAUDETTE       CLOUDY    56  50  80 E5        29.94F
FLAG ISLAND    MOCLDY    57  52  82 S7        29.92F
INTL FALLS     CLOUDY    56  51  84 CALM      29.95F
6HR MIN TEMP:  55; 6HR MAX TEMP:  60;

WASKISH        CLOUDY    61  48  63 CALM      29.94F
BIG FORK       MOCLDY    61  48  63 CALM      29.97S
LONGVILLE      CLEAR     61  46  59 CALM      29.98F
GRAND RAPIDS   CLEAR     63  43  48 S5        29.98F
CRANE LAKE     CLOUDY    55  52  88 CALM      29.98S
ORR            CLOUDY    57  48  72 CALM      29.94F
COOK           CLOUDY    59  50  72 CALM      29.97S
WALKER         FAIR      62  42  47 SW3       29.98S
$$
MNZ012-019>021-037-170100-
   Northeast Minnesota

CITY           SKY/WX    TMP DP  RH WIND       PRES   REMARKS
DULUTH         PTCLDY    63  43  48 SW10      29.98F
6HR MIN TEMP:  63; 6HR MAX TEMP:  69;

ELY            CLOUDY    57  46  67 CALM      29.97S
HIBBING        CLEAR     64  45  49 SW3       29.97F
EVELETH        CLEAR     61  45  55 SW5       29.98S
DULUTH HARBOR  CLEAR     64  46  52 SW10      29.98F
TWO HARBORS    CLEAR     61  45  55 SW7       29.95S
SILVER BAY     CLEAR     55  52  88 CALM      29.95S
GRAND MARAIS     N/A     57  49  74 NE3       29.95R
G MARAIS ARPRT PTCLDY    54  45  71 CALM      29.98S
$$
MNZ029>031-032-039>041-046>048-054>057-064-170100-
   West Central Minnesota

CITY           SKY/WX    TMP DP  RH WIND       PRES   REMARKS
FERGUS FALLS   CLEAR     64  43  45 SE6       29.97S
WHEATON        MOCLDY    63  48  59 SE7       29.97F
MORRIS         MOCLDY    66  48  52 SE5       29.97S
ALEXANDRIA     CLOUDY    62  47  57 SE5       30.01S
ELBOW LAKE     CLOUDY    63  46  54 SE6       29.98S
WADENA         CLEAR     63  43  48 S6        29.99
GLENWOOD       PTCLDY    61  48  63 SE3       30.00F
APPLETON       CLOUDY    66  48  52 SE3       29.97S
BENSON         CLOUDY    64  48  55 S5        29.98F
ORTONVILLE     CLOUDY    66  50  55 SE5       29.96F
MADISON        CLOUDY    66  52  59 S5        29.97F
WILLMAR        FAIR      64  48  55 SE3       30.01S
$$
MNZ033>034-036-042>043-049>051-058-059-170100-
   Central Minnesota

CITY           SKY/WX    TMP DP  RH WIND       PRES   REMARKS
ST CLOUD       PTCLDY    63  45  51 SE5       30.00F
6HR MIN TEMP:  63; 6HR MAX TEMP:  70;

SAUK CENTRE    FAIR      60  48  64 SE3       30.00F
PAYNESVILLE    MOCLDY    61  46  57 E3        30.00F
AITKIN         CLEAR     63  46  55 CALM      29.99F
PINE RIVER     CLEAR     61  46  59 S3        30.02F
BRAINERD       CLEAR     60  43  53 S5        30.00F
STAPLES        CLEAR     61  41  48 CALM      29.99F
LONG PRAIRIE   FAIR      59  45  58 SE5       30.01S
LITTLE FALLS   CLEAR     59  45  58 CALM      30.01F
LITCHFIELD     CLOUDY    64  46  52 CALM      30.01F
BUFFALO        MOCLDY    62  45  52 CALM      30.02F
MAPLE LAKE     MOCLDY    62  49  62 CALM      30.02F
$$
MNZ037-044-045-052-053-170100-
   East Central Minnesota

CITY           SKY/WX    TMP DP  RH WIND       PRES   REMARKS
PRINCETON      CLEAR     64  45  48 S2        30.02F
MORA           CLEAR     61  41  48 CALM      30.03F
CAMBRIDGE      CLEAR     64  46  52 CALM      30.01F
RUSH CITY      PTCLDY    61  46  57 CALM      30.02F
MOOSE LAKE     CLEAR     59  46  63 SW3       29.99F
HINCKLEY       FAIR      61  46  59 S3        30.01F
CLOQUET        CLEAR     61  39  44 SW6       30.00S
MCGREGOR       CLEAR     61  45  55 S6        30.01S
$$
MNZ071>073-080-081-089-090-097-098-170100-
   Southwest Minnesota

CITY           SKY/WX    TMP DP  RH WIND       PRES   REMARKS
MONTEVIDEO     CLOUDY    66  48  52 SW6       29.99S
GRANITE FALLS  CLOUDY    65  50  59 SE5       30.00S
CANBY          MOCLDY    65  49  56 S6        29.99S
MARSHALL       CLOUDY    66  46  48 S6        29.98S
REDWOOD FALLS  CLOUDY    64  48  56 SE6       29.99F
OLIVIA         CLOUDY    64  46  52 S5        29.99F
PIPESTONE      MOCLDY    63  48  59 S6        29.99F
WINDOM         PTCLDY    63  48  59 SE5       30.01F
WORTHINGTON    CLOUDY    63  46  55 S8        30.01F
JACKSON        CLOUDY    63  46  55 S3        30.03S
TRACY          CLOUDY    64  50  59 CALM      29.99F
SLAYTON        CLOUDY    63  46  54 CALM      30.01F
$$
MNZ065>067-074>077-082>085-091>093-170100-
   South Central Minnesota

CITY           SKY/WX    TMP DP  RH WIND       PRES   REMARKS
MANKATO        CLEAR     64  43  45 S5        30.02F
NEW ULM        PTCLDY    63  48  59 S3        30.00F
ST JAMES       MOCLDY    64  46  52 SE3       30.02F
FAIRMONT       MOCLDY    64  43  45 S6        30.02F
GLENCOE        PTCLDY    65  42  43 CALM      30.00F
FARIBAULT      CLEAR     66  43  42 CALM      30.04F
OWATONNA       CLEAR     63  45  51 CALM      30.04F
WASECA         CLEAR     61  41  48 CALM      30.05F
ALBERT LEA     CLEAR     63  45  51 CALM      30.05S
$$
MNZ078>079-086>088-094>096-170100-
   Southeast Minnesota

CITY           SKY/WX    TMP DP  RH WIND       PRES   REMARKS
ROCHESTER      CLEAR     59  46  62 S3        30.06F
6HR MIN TEMP:  59; 6HR MAX TEMP:  66;

RED WING       CLEAR     63  46  55 CALM      30.03F
STANTON        CLEAR     64  46  51 CALM      30.02F
DODGE CENTER   CLEAR     61  46  59 SW3       30.05F
WINONA         CLEAR     59  46  63 CALM      30.06F
AUSTIN         CLEAR     61  45  55 CALM      30.05F
PRESTON        CLEAR     60  50  70 CALM      30.07F
$$
ABBREVIATIONS USED IN REMARKS
   TC - TEMPERATURES IN CELSIUS
  WCI - WIND CHILL INDEX
   HX - HEAT INDEX
  VSB - VISIBILITY
$$


USA.gov is the U.S. government's official web portal to all federal, state and local government web resources and services.